Flag for China Weather past 2 weeks in Taiyuan, Shanxi, China

Now
57 °F

Fog.


Feels Like: 57 °F
Forecast: 50 / 80 °F
Wind: 1 mph from Southeast

Location: Taiyuan Airport

Current Time: Sep 20, 2014 at 2:46:38 AM

Latest Report: Sep 20, 2014 at 2:00 AM


Visibility: 1 mi

Pressure: 29.92 "Hg

Humidity: 88%

Dew point: 54 °F

Location of TaiyuanLocation

Historic Weather in Taiyuan — Graph

°F

Taiyuan temperature yesterday

Maximum temperature yesterday: 75 °F (at 4:00 PM)
Minimum temperature yesterday: 48 °F (at 5:30 AM)
Average temperature yesterday: 60 °F

Past Weeks' High & Low Weather Summary

 TemperatureHumidityPressure
High86 °F (Sep 5, 2:00 PM)94% (Sep 7, 4:30 AM)30.24 "Hg (Sep 7, 4:30 AM)
Low43 °F (Sep 18, 6:30 AM)22% (Sep 5, 3:00 PM)29.80 "Hg (Sep 5, 2:30 PM)
Average64 °F72%30.01 "Hg
* Reported Sep 5 1:00 AM — Sep 20 1:30 AM, Taiyuan, Weather by CustomWeather, © 2014

Note: Actual official high and low records may vary slightly from our data, if they occured in-between our weather recording intervals... More about our weather records

Advertising

Taiyuan weather history for previous 24 hours

 ConditionsComfort  
Time TempWeatherWind HumidityBarometerVisibility
1:30 AM
Sep 20
55 °FFog.3 mph94%29.92 "Hg1 mi
1:00 AM59 °FFog.3 mph82%29.92 "Hg1 mi
12:30 AM59 °FFog.6 mph82%29.92 "Hg1 mi
12:00 AM59 °FFog.3 mph88%29.92 "Hg1 mi
11:30 PM
Sep 19
59 °FFog.3 mph82%29.92 "Hg1 mi
11:00 PM59 °FFog.3 mph88%29.92 "Hg1 mi
10:30 PM61 °FFog.3 mph83%29.92 "Hg2 mi
10:00 PM61 °FFog.6 mph83%29.92 "Hg2 mi
9:30 PM63 °FHaze.3 mph77%29.92 "Hg2 mi
9:00 PM63 °FHaze.3 mph77%29.89 "Hg3 mi
8:30 PM64 °FClear.3 mph73%29.89 "Hg4 mi
8:00 PM66 °FClear.3 mph68%29.89 "Hg4 mi
7:30 PM66 °FClear.3 mph68%29.89 "Hg4 mi
7:00 PM66 °FClear.3 mph68%29.86 "Hg5 mi
6:30 PM68 °FSunny.3 mph64%29.86 "Hg10 mi
6:00 PM72 °FSunny.1 mph57%29.86 "Hg10 mi
5:30 PM73 °FPassing clouds.3 mph50%29.86 "HgN/A
5:00 PM75 °FPassing clouds.6 mph47%29.86 "HgN/A
4:30 PM75 °FPassing clouds.6 mph50%29.86 "HgN/A
4:00 PM75 °FClear.3 mph54%29.89 "Hg4 mi
3:30 PM73 °FHaze.6 mph53%29.89 "Hg3 mi
3:00 PM73 °FHaze.6 mph53%29.92 "Hg2 mi
2:30 PM73 °FHaze.3 mph53%29.92 "Hg2 mi
2:00 PM72 °FHaze.3 mph57%29.92 "Hg2 mi
1:30 PM70 °FHaze.6 mph60%29.95 "Hg2 mi
1:00 PM68 °FHaze.3 mph64%29.98 "Hg2 mi
12:30 PM66 °FHaze.3 mph64%29.98 "Hg2 mi
12:00 PM64 °FHaze.3 mph73%30.01 "Hg2 mi
11:30 AM61 °FFog.1 mph77%30.04 "Hg2 mi
11:00 AM59 °FFog.3 mph82%30.04 "Hg2 mi
10:30 AM59 °FFog.3 mph77%30.04 "Hg2 mi
10:00 AM57 °FFog.3 mph82%30.07 "Hg2 mi
9:30 AM55 °FFog.3 mph88%30.07 "Hg2 mi
9:00 AM55 °FFog.1 mph88%30.07 "Hg2 mi
8:30 AM54 °FFog.1 mph88%30.07 "Hg1 mi
8:00 AM54 °FFog.No wind88%30.07 "Hg1 mi
7:30 AM52 °FFog.3 mph88%30.07 "Hg2 mi
7:00 AM50 °FFog.1 mph94%30.07 "Hg2 mi
6:30 AM48 °FFog.1 mph94%30.07 "Hg3 mi
6:00 AM50 °FClear.1 mph88%30.07 "Hg4 mi
5:30 AM48 °FClear.1 mph87%30.07 "Hg10 mi
5:00 AM50 °FClear.1 mph82%30.07 "Hg10 mi
4:30 AM50 °FClear.1 mph82%30.07 "Hg10 mi
4:00 AM52 °FClear.1 mph82%30.07 "Hg10 mi
3:30 AM52 °FClear.1 mph82%30.07 "Hg10 mi
3:00 AM54 °FClear.1 mph77%30.07 "Hg10 mi
2:30 AM52 °FClear.1 mph82%30.07 "Hg10 mi
2:00 AM54 °FClear.3 mph77%30.07 "Hg10 mi
Weather by CustomWeather, © 2014

See weather overviewHow to use our weather pages